Weather History for KTAD - September, 2012

Change the Weather History Date:

Saturday, September 22, 2012

  Actual Average Record
Temperature  
Mean Temperature 66 °F 62 °F  
Max Temperature 84 °F 77 °F 90 °F (1953)
Min Temperature 47 °F 46 °F 33 °F (1951)
Degree Days  
Heating Degree Days 0 5  
Month to date heating degree days 41 52  
Since 1 July heating degree days 41 62  
Cooling Degree Days 1 1  
Month to date cooling degree days 85 68  
Year to date cooling degree days 1170 710  
Growing Degree Days 16 (Base 50)    
Moisture  
Dew Point 33 °F    
Average Humidity 36    
Maximum Humidity 56    
Minimum Humidity 16    
Precipitation  
Precipitation 0.00 in 0.04 in 0.74 in (1970)
Month to date precipitation 0.58 0.99  
Year to date precipitation 11.45  
Sea Level Pressure  
Sea Level Pressure 30.06 in    
Wind  
Wind Speed 8 mph (West)    
Max Wind Speed 17 mph    
Max Gust Speed 22 mph    
Visibility 10 miles    
Events      
T = Trace of Precipitation, MM = Missing Value Source: NWS Daily Summary

Daily Weather History Graph

Daily Weather History Graph

Search for Another Location

Airport or City:

Trip Planner

Search our weather history database for the weather conditions in past years. The results will help you decide how hot, cold, wet, or windy it might be!

Date:

Astronomy

Sep. 22, 2012 Rise Set
Actual Time 6:45 AM MDT 6:53 PM MDT
Civil Twilight 6:19 AM MDT 7:19 PM MDT
Nautical Twilight 5:49 AM MDT 7:49 PM MDT
Astronomical Twilight 5:18 AM MDT 8:20 PM MDT
Moon 1:57 PM MDT (9/22) No Moon Set
Length of Visible Light 12h 59m
Length of Day
12h 07m
Waxing Crescent, 49% of the Moon is Illuminated
Sep 22
Waxing Crescent
Sep 22
First Quarter
Sep 29
Full
Oct 8
Last Quarter
Oct 15
New

Hourly Weather History & Observations

Time (MDT) Temp. Dew Point Humidity Pressure Visibility Wind Dir Wind Speed Gust Speed Precip Events Conditions
12:54 AM 54.0 °F 30.9 °F 41% 30.02 in 10.0 mi West 10.4 mph - N/A   Clear
1:54 AM 52.0 °F 30.9 °F 45% 30.03 in 10.0 mi West 10.4 mph - N/A   Clear
2:54 AM 52.0 °F 32.0 °F 47% 30.03 in 10.0 mi West 10.4 mph - N/A   Clear
3:54 AM 48.9 °F 32.0 °F 52% 30.04 in 10.0 mi WNW 8.1 mph - N/A   Clear
4:54 AM 48.9 °F 33.1 °F 54% 30.06 in 10.0 mi West 11.5 mph - N/A   Clear
5:54 AM 48.9 °F 32.0 °F 52% 30.09 in 10.0 mi West 6.9 mph - N/A   Clear
6:54 AM 48.9 °F 32.0 °F 52% 30.13 in 10.0 mi West 3.5 mph - N/A   Clear
7:54 AM 54.0 °F 33.1 °F 45% 30.15 in 10.0 mi WSW 10.4 mph - N/A   Clear
8:54 AM 63.0 °F 33.1 °F 33% 30.16 in 10.0 mi WSW 5.8 mph - N/A   Clear
9:54 AM 68.0 °F 32.0 °F 26% 30.16 in 10.0 mi NW 4.6 mph - N/A   Clear
10:54 AM 72.0 °F 32.0 °F 23% 30.14 in 10.0 mi Calm Calm - N/A   Clear
12:54 PM 75.9 °F 32.0 °F 20% 30.10 in 10.0 mi Variable 5.8 mph - N/A   Clear
1:54 PM 78.1 °F 30.9 °F 18% 30.06 in 10.0 mi ENE 6.9 mph - N/A   Clear
2:54 PM 81.0 °F 30.9 °F 16% 30.04 in 10.0 mi Variable 6.9 mph - N/A   Clear
3:54 PM 82.9 °F 32.0 °F 16% 30.01 in 10.0 mi East 10.4 mph - N/A   Clear
4:54 PM 84.0 °F 34.0 °F 17% 29.97 in 10.0 mi East 11.5 mph - N/A   Clear
5:54 PM 82.0 °F 33.1 °F 17% 29.97 in 10.0 mi East 16.1 mph 19.6 mph N/A   Clear
6:54 PM 75.0 °F 36.0 °F 24% 29.99 in 10.0 mi East 5.8 mph - N/A   Clear
7:54 PM 68.0 °F 35.1 °F 30% 30.01 in 10.0 mi SSW 6.9 mph - N/A   Clear
8:54 PM 63.0 °F 36.0 °F 37% 30.04 in 10.0 mi SW 5.8 mph - N/A   Clear
9:54 PM 61.0 °F 37.0 °F 41% 30.05 in 10.0 mi WNW 6.9 mph - N/A   Clear
10:54 PM 57.9 °F 36.0 °F 44% 30.06 in 10.0 mi NW 6.9 mph - N/A   Clear
11:54 PM 59.0 °F 36.0 °F 42% 30.05 in 10.0 mi WNW 9.2 mph - N/A   Clear